Time,TemperatureF,DewpointF,PressureIn,WindDirection,WindDirectionDegrees,WindSpeedMPH,WindSpeedGustMPH,Humidity,HourlyPrecipIn,Conditions,Clouds,dailyrainin,SolarRadiationWatts/m^2,SoftwareType,DateUTC
2013-08-11 00:01:00,64.0,55.5,29.74,NW,324,0.0,0.0,74,0.00,,,0.00,0,WeatherCatV1.20B785,2013-08-11 04:01:00,
2013-08-11 00:06:00,63.9,55.4,29.75,NW,324,0.0,0.0,74,0.00,,,0.00,0,WeatherCatV1.20B785,2013-08-11 04:06:00,
2013-08-11 00:11:00,63.7,55.2,29.75,NW,324,0.0,0.0,74,0.00,,,0.00,0,WeatherCatV1.20B785,2013-08-11 04:11:00,
2013-08-11 00:16:00,63.5,55.1,29.75,NW,323,0.0,0.0,74,0.00,,,0.00,0,WeatherCatV1.20B785,2013-08-11 04:16:00,
2013-08-11 00:21:00,63.4,55.0,29.75,NW,324,0.0,0.0,74,0.00,,,0.00,0,WeatherCatV1.20B785,2013-08-11 04:21:00,
2013-08-11 00:26:00,63.3,54.9,29.75,NW,324,0.0,0.0,74,0.00,,,0.00,0,WeatherCatV1.20B785,2013-08-11 04:26:00,
2013-08-11 00:31:00,63.2,55.1,29.75,NW,323,0.0,0.0,75,0.00,,,0.00,0,WeatherCatV1.20B785,2013-08-11 04:31:00,
2013-08-11 00:36:00,63.1,55.0,29.75,NW,323,0.0,0.0,75,0.00,,,0.00,0,WeatherCatV1.20B785,2013-08-11 04:36:00,
2013-08-11 00:41:00,62.9,54.8,29.75,NW,324,0.0,0.0,75,0.00,,,0.00,0,WeatherCatV1.20B785,2013-08-11 04:41:00,
2013-08-11 00:46:00,62.8,54.8,29.75,NW,323,0.0,0.0,75,0.00,,,0.00,0,WeatherCatV1.20B785,2013-08-11 04:46:00,
2013-08-11 00:51:00,62.7,54.7,29.75,NW,324,0.0,0.0,75,0.00,,,0.00,0,WeatherCatV1.20B785,2013-08-11 04:51:00,
2013-08-11 00:56:00,62.5,54.8,29.75,NW,323,0.0,0.0,76,0.00,,,0.00,0,WeatherCatV1.20B785,2013-08-11 04:56:00,
2013-08-11 01:01:00,62.5,54.8,29.75,NW,324,0.0,0.0,76,0.00,,,0.00,0,WeatherCatV1.20B785,2013-08-11 05:01:00,
2013-08-11 01:04:00,62.4,54.7,29.75,NW,324,0.0,0.0,76,0.00,,,0.00,0,WeatherCatV1.20B785,2013-08-11 05:04:00,
2013-08-11 01:09:00,62.3,54.6,29.76,NW,324,0.0,0.0,76,0.00,,,0.00,0,WeatherCatV1.20B785,2013-08-11 05:09:00,
2013-08-11 01:14:00,62.2,54.5,29.76,NW,323,0.0,0.0,76,0.00,,,0.00,0,WeatherCatV1.20B785,2013-08-11 05:14:00,
2013-08-11 01:19:00,62.2,54.9,29.76,NW,323,0.0,0.0,77,0.00,,,0.00,0,WeatherCatV1.20B785,2013-08-11 05:19:00,
2013-08-11 01:24:00,62.0,54.7,29.76,NW,324,0.0,0.0,77,0.00,,,0.00,0,WeatherCatV1.20B785,2013-08-11 05:24:00,
2013-08-11 01:29:00,61.9,54.6,29.76,NW,324,0.0,0.0,77,0.00,,,0.00,0,WeatherCatV1.20B785,2013-08-11 05:29:00,
2013-08-11 01:34:00,61.8,54.5,29.76,NW,324,0.0,0.0,77,0.00,,,0.00,0,WeatherCatV1.20B785,2013-08-11 05:34:00,
2013-08-11 01:39:00,61.7,54.4,29.76,NW,324,0.0,0.0,77,0.00,,,0.00,0,WeatherCatV1.20B785,2013-08-11 05:39:00,
2013-08-11 01:44:00,61.5,54.6,29.76,NW,324,0.0,0.0,78,0.00,,,0.00,0,WeatherCatV1.20B785,2013-08-11 05:44:00,
2013-08-11 01:49:00,61.4,54.5,29.76,NW,324,0.0,0.0,78,0.00,,,0.00,0,WeatherCatV1.20B785,2013-08-11 05:49:00,
2013-08-11 01:54:00,61.3,54.4,29.76,NW,324,0.0,0.0,78,0.00,,,0.00,0,WeatherCatV1.20B785,2013-08-11 05:54:00,
2013-08-11 01:59:00,61.1,54.2,29.76,NW,323,0.0,0.0,78,0.00,,,0.00,0,WeatherCatV1.20B785,2013-08-11 05:59:00,
2013-08-11 02:04:00,61.0,54.1,29.76,NW,324,0.0,0.0,78,0.00,,,0.00,0,WeatherCatV1.20B785,2013-08-11 06:04:00,
2013-08-11 02:09:00,60.8,54.2,29.76,NW,324,0.0,0.0,79,0.00,,,0.00,0,WeatherCatV1.20B785,2013-08-11 06:09:00,
2013-08-11 02:14:00,60.7,54.1,29.76,NW,324,0.0,0.0,79,0.00,,,0.00,0,WeatherCatV1.20B785,2013-08-11 06:14:00,
2013-08-11 02:19:00,60.5,54.0,29.76,NW,324,0.0,0.0,79,0.00,,,0.00,0,WeatherCatV1.20B785,2013-08-11 06:19:00,
2013-08-11 02:24:00,60.4,54.2,29.77,NW,324,0.0,0.0,80,0.00,,,0.00,0,WeatherCatV1.20B785,2013-08-11 06:24:00,
2013-08-11 02:29:00,60.2,54.0,29.77,NW,324,0.0,0.0,80,0.00,,,0.00,0,WeatherCatV1.20B785,2013-08-11 06:29:00,
2013-08-11 02:34:00,60.1,53.9,29.77,NW,324,0.0,0.0,80,0.00,,,0.00,0,WeatherCatV1.20B785,2013-08-11 06:34:00,
2013-08-11 02:38:00,59.9,54.0,29.76,NW,323,0.0,0.0,81,0.00,,,0.00,0,WeatherCatV1.20B785,2013-08-11 06:38:00,
2013-08-11 02:43:00,59.8,54.0,29.77,NW,324,0.0,0.0,81,0.00,,,0.00,0,WeatherCatV1.20B785,2013-08-11 06:43:00,
2013-08-11 02:48:00,59.6,53.8,29.77,NW,324,0.0,0.0,81,0.00,,,0.00,0,WeatherCatV1.20B785,2013-08-11 06:48:00,
2013-08-11 02:53:00,59.5,53.7,29.77,NW,324,0.0,0.0,81,0.00,,,0.00,0,WeatherCatV1.20B785,2013-08-11 06:53:00,
2013-08-11 02:58:00,59.3,53.8,29.77,NW,324,0.0,0.0,82,0.00,,,0.00,0,WeatherCatV1.20B785,2013-08-11 06:58:00,
2013-08-11 03:03:00,59.0,53.5,29.77,NW,323,0.0,0.0,82,0.00,,,0.00,0,WeatherCatV1.20B785,2013-08-11 07:03:00,
2013-08-11 03:08:00,59.0,53.5,29.77,NW,324,0.0,0.0,82,0.00,,,0.00,0,WeatherCatV1.20B785,2013-08-11 07:08:00,
2013-08-11 03:13:00,59.0,53.5,29.77,NW,324,0.0,0.0,82,0.00,,,0.00,0,WeatherCatV1.20B785,2013-08-11 07:13:00,
2013-08-11 03:18:00,58.8,53.3,29.77,NW,324,0.0,0.0,82,0.00,,,0.00,0,WeatherCatV1.20B785,2013-08-11 07:18:00,
2013-08-11 03:23:00,58.6,53.1,29.77,NW,324,0.0,0.0,82,0.00,,,0.00,0,WeatherCatV1.20B785,2013-08-11 07:23:00,
2013-08-11 03:28:00,58.4,53.2,29.77,NW,324,0.0,0.0,83,0.00,,,0.00,0,WeatherCatV1.20B785,2013-08-11 07:28:00,
2013-08-11 03:33:00,58.2,53.1,29.77,NW,324,0.0,0.0,83,0.00,,,0.00,0,WeatherCatV1.20B785,2013-08-11 07:33:00,
2013-08-11 03:38:00,58.1,53.0,29.77,NW,324,0.0,0.0,83,0.00,,,0.00,0,WeatherCatV1.20B785,2013-08-11 07:38:00,
2013-08-11 03:40:00,58.0,52.9,29.77,NW,324,0.0,0.0,83,0.00,,,0.00,0,WeatherCatV1.20B785,2013-08-11 07:40:00,
2013-08-11 03:42:00,58.0,52.9,29.77,NW,323,0.0,0.0,83,0.00,,,0.00,0,WeatherCatV1.20B785,2013-08-11 07:42:00,
2013-08-11 03:47:00,57.8,52.7,29.77,NW,324,0.0,0.0,83,0.00,,,0.00,0,WeatherCatV1.20B785,2013-08-11 07:47:00,
2013-08-11 03:52:00,57.6,52.8,29.78,NW,324,0.0,0.0,84,0.00,,,0.00,0,WeatherCatV1.20B785,2013-08-11 07:52:00,
2013-08-11 03:57:00,57.4,52.6,29.78,NW,324,0.0,0.0,84,0.00,,,0.00,0,WeatherCatV1.20B785,2013-08-11 07:57:00,
2013-08-11 04:02:00,57.3,52.5,29.78,NW,324,0.0,0.0,84,0.00,,,0.00,0,WeatherCatV1.20B785,2013-08-11 08:02:00,
2013-08-11 04:07:00,57.1,52.3,29.78,NW,324,0.0,0.0,84,0.00,,,0.00,0,WeatherCatV1.20B785,2013-08-11 08:07:00,
2013-08-11 04:12:00,57.0,52.2,29.78,NW,324,0.0,0.0,84,0.00,,,0.00,0,WeatherCatV1.20B785,2013-08-11 08:12:00,
2013-08-11 04:17:00,56.9,52.1,29.78,NW,323,0.0,0.0,84,0.00,,,0.00,0,WeatherCatV1.20B785,2013-08-11 08:17:00,
2013-08-11 04:22:00,56.7,52.2,29.78,NW,323,0.0,0.0,85,0.00,,,0.00,0,WeatherCatV1.20B785,2013-08-11 08:22:00,
2013-08-11 04:27:00,56.6,52.1,29.78,NW,324,0.0,0.0,85,0.00,,,0.00,0,WeatherCatV1.20B785,2013-08-11 08:27:00,
2013-08-11 04:32:00,56.5,52.0,29.78,NW,324,0.0,0.0,85,0.00,,,0.00,0,WeatherCatV1.20B785,2013-08-11 08:32:00,
2013-08-11 04:37:00,56.4,51.9,29.78,NW,324,0.0,0.0,85,0.00,,,0.00,0,WeatherCatV1.20B785,2013-08-11 08:37:00,
2013-08-11 04:42:00,56.2,51.8,29.78,NW,323,0.0,0.0,85,0.00,,,0.00,0,WeatherCatV1.20B785,2013-08-11 08:42:00,
2013-08-11 04:47:00,56.1,51.7,29.78,NW,324,0.0,0.0,85,0.00,,,0.00,0,WeatherCatV1.20B785,2013-08-11 08:47:00,
2013-08-11 04:52:00,56.0,51.9,29.78,NW,323,0.0,0.0,86,0.00,,,0.00,0,WeatherCatV1.20B785,2013-08-11 08:52:00,
2013-08-11 04:57:00,55.9,51.8,29.78,NW,324,0.0,0.0,86,0.00,,,0.00,0,WeatherCatV1.20B785,2013-08-11 08:57:00,
2013-08-11 05:02:00,55.8,51.7,29.79,NW,323,0.0,0.0,86,0.00,,,0.00,0,WeatherCatV1.20B785,2013-08-11 09:02:00,
2013-08-11 05:07:00,55.7,51.6,29.79,NW,323,0.0,0.0,86,0.00,,,0.00,0,WeatherCatV1.20B785,2013-08-11 09:07:00,
2013-08-11 05:12:00,55.6,51.5,29.79,NW,324,0.0,0.0,86,0.00,,,0.00,0,WeatherCatV1.20B785,2013-08-11 09:12:00,
2013-08-11 05:17:00,55.5,51.4,29.79,NW,323,0.0,0.0,86,0.00,,,0.00,0,WeatherCatV1.20B785,2013-08-11 09:17:00,
2013-08-11 05:22:00,55.4,51.3,29.79,NW,324,0.0,0.0,86,0.00,,,0.00,0,WeatherCatV1.20B785,2013-08-11 09:22:00,
2013-08-11 05:27:00,55.3,51.2,29.79,NW,323,0.0,0.0,86,0.00,,,0.00,0,WeatherCatV1.20B785,2013-08-11 09:27:00,
2013-08-11 05:32:00,55.1,51.0,29.79,NW,324,0.0,0.0,86,0.00,,,0.00,0,WeatherCatV1.20B785,2013-08-11 09:32:00,
2013-08-11 05:37:00,55.0,50.9,29.79,NW,323,0.0,0.0,86,0.00,,,0.00,0,WeatherCatV1.20B785,2013-08-11 09:37:00,
2013-08-11 05:42:00,55.0,50.9,29.79,NW,324,0.0,0.0,86,0.00,,,0.00,0,WeatherCatV1.20B785,2013-08-11 09:42:00,
2013-08-11 05:47:00,54.8,51.0,29.79,NW,324,0.0,0.0,87,0.00,,,0.00,0,WeatherCatV1.20B785,2013-08-11 09:47:00,
2013-08-11 05:52:00,54.7,50.9,29.79,NW,323,0.0,0.0,87,0.00,,,0.00,0,WeatherCatV1.20B785,2013-08-11 09:52:00,
2013-08-11 05:57:00,54.6,50.8,29.80,NW,323,0.0,0.0,87,0.00,,,0.00,0,WeatherCatV1.20B785,2013-08-11 09:57:00,
2013-08-11 06:02:00,54.6,50.8,29.80,NW,324,0.0,0.0,87,0.00,,,0.00,5,WeatherCatV1.20B785,2013-08-11 10:02:00,
2013-08-11 06:07:00,54.5,50.7,29.80,NW,324,0.0,0.0,87,0.00,,,0.00,7,WeatherCatV1.20B785,2013-08-11 10:07:00,
2013-08-11 06:12:00,54.5,50.7,29.80,NW,323,0.0,0.0,87,0.00,,,0.00,9,WeatherCatV1.20B785,2013-08-11 10:12:00,
2013-08-11 06:17:00,54.4,50.6,29.80,NW,324,0.0,0.0,87,0.00,,,0.00,18,WeatherCatV1.20B785,2013-08-11 10:17:00,
2013-08-11 06:22:00,54.3,50.5,29.80,NW,324,0.0,0.0,87,0.00,,,0.00,11,WeatherCatV1.20B785,2013-08-11 10:22:00,
2013-08-11 06:27:00,54.3,50.5,29.80,NW,323,0.0,0.0,87,0.00,,,0.00,11,WeatherCatV1.20B785,2013-08-11 10:27:00,
2013-08-11 06:32:00,54.2,50.7,29.80,NW,323,0.0,0.0,88,0.00,,,0.00,12,WeatherCatV1.20B785,2013-08-11 10:32:00,
2013-08-11 06:37:00,54.2,50.7,29.81,NW,324,0.0,0.0,88,0.00,,,0.00,14,WeatherCatV1.20B785,2013-08-11 10:37:00,
2013-08-11 06:42:00,54.2,50.7,29.81,NW,324,0.0,0.0,88,0.00,,,0.00,16,WeatherCatV1.20B785,2013-08-11 10:42:00,
2013-08-11 06:47:00,54.3,50.8,29.81,NW,324,0.0,0.0,88,0.00,,,0.00,18,WeatherCatV1.20B785,2013-08-11 10:47:00,
2013-08-11 06:52:00,54.4,51.2,29.81,NW,323,0.0,0.0,89,0.00,,,0.00,18,WeatherCatV1.20B785,2013-08-11 10:52:00,
2013-08-11 06:57:00,54.6,51.4,29.81,NW,324,0.0,0.0,89,0.00,,,0.00,18,WeatherCatV1.20B785,2013-08-11 10:57:00,
2013-08-11 07:02:00,54.8,51.9,29.81,NW,323,0.0,0.0,90,0.00,,,0.00,18,WeatherCatV1.20B785,2013-08-11 11:02:00,
2013-08-11 07:07:00,55.1,52.2,29.81,NW,323,0.0,0.0,90,0.00,,,0.00,19,WeatherCatV1.20B785,2013-08-11 11:07:00,
2013-08-11 07:12:00,55.4,52.5,29.81,NW,324,0.0,0.0,90,0.00,,,0.00,19,WeatherCatV1.20B785,2013-08-11 11:12:00,
2013-08-11 07:17:00,55.7,53.1,29.81,NW,324,0.0,0.0,91,0.00,,,0.00,19,WeatherCatV1.20B785,2013-08-11 11:17:00,
2013-08-11 07:22:00,55.9,53.3,29.81,NW,324,0.0,0.0,91,0.00,,,0.00,21,WeatherCatV1.20B785,2013-08-11 11:22:00,
2013-08-11 07:27:00,56.2,53.6,29.81,NW,324,0.0,0.0,91,0.00,,,0.00,21,WeatherCatV1.20B785,2013-08-11 11:27:00,
2013-08-11 07:32:00,56.6,54.0,29.81,NW,324,1.0,1.0,91,0.00,,,0.00,23,WeatherCatV1.20B785,2013-08-11 11:32:00,
2013-08-11 07:37:00,56.9,54.3,29.81,NW,324,0.0,0.0,91,0.00,,,0.00,25,WeatherCatV1.20B785,2013-08-11 11:37:00,
2013-08-11 07:42:00,57.2,54.6,29.81,NW,323,0.0,0.0,91,0.00,,,0.00,25,WeatherCatV1.20B785,2013-08-11 11:42:00,
2013-08-11 07:47:00,57.5,54.9,29.81,NW,324,0.0,0.0,91,0.00,,,0.00,26,WeatherCatV1.20B785,2013-08-11 11:47:00,
2013-08-11 07:52:00,57.9,55.3,29.81,NW,324,0.0,0.0,91,0.00,,,0.00,30,WeatherCatV1.20B785,2013-08-11 11:52:00,
2013-08-11 07:57:00,58.2,55.3,29.81,NW,324,0.0,1.0,90,0.00,,,0.00,32,WeatherCatV1.20B785,2013-08-11 11:57:00,
2013-08-11 08:02:00,58.7,55.5,29.81,NW,324,0.0,0.0,89,0.00,,,0.00,37,WeatherCatV1.20B785,2013-08-11 12:02:00,
2013-08-11 08:07:00,59.0,55.8,29.81,NW,324,0.0,0.0,89,0.00,,,0.00,39,WeatherCatV1.20B785,2013-08-11 12:07:00,
2013-08-11 08:12:00,59.6,55.7,29.81,NW,323,0.0,1.0,87,0.00,,,0.00,56,WeatherCatV1.20B785,2013-08-11 12:12:00,
2013-08-11 08:17:00,60.2,56.0,29.81,NW,324,0.0,1.0,86,0.00,,,0.00,54,WeatherCatV1.20B785,2013-08-11 12:17:00,
2013-08-11 08:22:00,60.8,56.3,29.81,NW,323,0.0,1.0,85,0.00,,,0.00,56,WeatherCatV1.20B785,2013-08-11 12:22:00,
2013-08-11 08:27:00,61.4,56.2,29.82,NW,324,0.0,0.0,83,0.00,,,0.00,60,WeatherCatV1.20B785,2013-08-11 12:27:00,
2013-08-11 08:32:00,61.8,55.9,29.82,NW,324,0.0,1.0,81,0.00,,,0.00,420,WeatherCatV1.20B785,2013-08-11 12:32:00,
2013-08-11 08:37:00,64.1,55.6,29.82,NW,324,0.0,2.0,74,0.00,,,0.00,524,WeatherCatV1.20B785,2013-08-11 12:37:00,
2013-08-11 08:42:00,65.8,55.7,29.81,NW,325,2.0,5.0,70,0.00,,,0.00,536,WeatherCatV1.20B785,2013-08-11 12:42:00,
2013-08-11 08:47:00,66.4,56.3,29.82,NW,325,0.0,2.0,70,0.00,,,0.00,554,WeatherCatV1.20B785,2013-08-11 12:47:00,
2013-08-11 08:52:00,67.0,56.5,29.81,NW,325,0.0,1.0,69,0.00,,,0.00,564,WeatherCatV1.20B785,2013-08-11 12:52:00,
2013-08-11 08:57:00,67.8,56.8,29.81,NW,325,1.0,3.0,68,0.00,,,0.00,585,WeatherCatV1.20B785,2013-08-11 12:57:00,
2013-08-11 09:02:00,68.2,55.5,29.81,NW,321,3.0,4.0,64,0.00,,,0.00,599,WeatherCatV1.20B785,2013-08-11 13:02:00,
2013-08-11 09:07:00,68.4,55.3,29.81,NW,319,3.0,5.0,63,0.00,,,0.00,615,WeatherCatV1.20B785,2013-08-11 13:07:00,
2013-08-11 09:12:00,68.7,56.0,29.81,NW,321,2.0,3.0,64,0.00,,,0.00,629,WeatherCatV1.20B785,2013-08-11 13:12:00,
2013-08-11 09:17:00,69.2,56.1,29.81,NW,322,2.0,3.0,63,0.00,,,0.00,642,WeatherCatV1.20B785,2013-08-11 13:17:00,
2013-08-11 09:22:00,70.1,56.9,29.81,NNW,333,0.0,0.0,63,0.00,,,0.00,656,WeatherCatV1.20B785,2013-08-11 13:22:00,
2013-08-11 09:27:00,70.4,56.3,29.81,NNW,330,0.0,4.0,61,0.00,,,0.00,670,WeatherCatV1.20B785,2013-08-11 13:27:00,
2013-08-11 09:32:00,70.3,55.7,29.81,NNW,330,1.0,4.0,60,0.00,,,0.00,684,WeatherCatV1.20B785,2013-08-11 13:32:00,
2013-08-11 09:37:00,70.5,55.9,29.81,NNW,331,0.0,4.0,60,0.00,,,0.00,693,WeatherCatV1.20B785,2013-08-11 13:37:00,
2013-08-11 09:42:00,71.2,56.1,29.81,NW,316,0.0,3.0,59,0.00,,,0.00,657,WeatherCatV1.20B785,2013-08-11 13:42:00,
2013-08-11 09:47:00,72.4,56.8,29.81,NW,322,4.0,4.0,58,0.00,,,0.00,719,WeatherCatV1.20B785,2013-08-11 13:47:00,
2013-08-11 09:52:00,72.2,56.6,29.81,WNW,290,0.0,0.0,58,0.00,,,0.00,729,WeatherCatV1.20B785,2013-08-11 13:52:00,
2013-08-11 09:57:00,72.9,58.2,29.81,NW,309,0.0,0.0,60,0.00,,,0.00,255,WeatherCatV1.20B785,2013-08-11 13:57:00,
2013-08-11 10:02:00,73.5,56.8,29.81,NW,322,0.0,3.0,56,0.00,,,0.00,752,WeatherCatV1.20B785,2013-08-11 14:02:00,
2013-08-11 10:07:00,73.1,55.5,29.81,NW,319,1.0,5.0,54,0.00,,,0.00,768,WeatherCatV1.20B785,2013-08-11 14:07:00,
2013-08-11 10:12:00,72.4,55.8,29.81,NNW,331,0.0,4.0,56,0.00,,,0.00,780,WeatherCatV1.20B785,2013-08-11 14:12:00,
2013-08-11 10:17:00,74.0,57.3,29.81,SE,139,0.0,1.0,56,0.00,,,0.00,791,WeatherCatV1.20B785,2013-08-11 14:17:00,
2013-08-11 10:22:00,73.6,55.4,29.80,NNW,334,1.0,3.0,53,0.00,,,0.00,803,WeatherCatV1.20B785,2013-08-11 14:22:00,
2013-08-11 10:27:00,74.2,55.4,29.81,NW,321,0.0,3.0,52,0.00,,,0.00,812,WeatherCatV1.20B785,2013-08-11 14:27:00,
2013-08-11 10:32:00,74.1,57.4,29.81,NW,326,0.0,4.0,56,0.00,,,0.00,817,WeatherCatV1.20B785,2013-08-11 14:32:00,
2013-08-11 10:37:00,74.8,54.9,29.80,WSW,237,1.0,1.0,50,0.00,,,0.00,830,WeatherCatV1.20B785,2013-08-11 14:37:00,
2013-08-11 10:42:00,75.4,56.5,29.80,SSW,192,5.0,5.0,52,0.00,,,0.00,765,WeatherCatV1.20B785,2013-08-11 14:42:00,
2013-08-11 10:47:00,75.1,54.0,29.80,NW,316,1.0,9.0,48,0.00,,,0.00,851,WeatherCatV1.20B785,2013-08-11 14:47:00,
2013-08-11 10:52:00,73.4,53.1,29.80,NW,323,3.0,4.0,49,0.00,,,0.00,905,WeatherCatV1.20B785,2013-08-11 14:52:00,
2013-08-11 10:57:00,73.4,54.2,29.80,NW,318,2.0,2.0,51,0.00,,,0.00,933,WeatherCatV1.20B785,2013-08-11 14:57:00,
2013-08-11 11:02:00,74.2,54.3,29.80,NW,323,2.0,5.0,50,0.00,,,0.00,775,WeatherCatV1.20B785,2013-08-11 15:02:00,
2013-08-11 11:07:00,73.1,53.3,29.80,NNW,336,2.0,3.0,50,0.00,,,0.00,1046,WeatherCatV1.20B785,2013-08-11 15:07:00,
2013-08-11 11:12:00,73.4,54.2,29.80,NNW,327,4.0,5.0,51,0.00,,,0.00,471,WeatherCatV1.20B785,2013-08-11 15:12:00,
2013-08-11 11:17:00,73.4,52.5,29.80,NW,321,1.0,4.0,48,0.00,,,0.00,972,WeatherCatV1.20B785,2013-08-11 15:17:00,
2013-08-11 11:22:00,73.9,53.5,29.80,NW,323,1.0,4.0,49,0.00,,,0.00,925,WeatherCatV1.20B785,2013-08-11 15:22:00,
2013-08-11 11:27:00,74.3,53.9,29.80,SW,217,0.0,2.0,49,0.00,,,0.00,923,WeatherCatV1.20B785,2013-08-11 15:27:00,
2013-08-11 11:32:00,76.3,55.2,29.80,NW,318,4.0,4.0,48,0.00,,,0.00,914,WeatherCatV1.20B785,2013-08-11 15:32:00,
2013-08-11 11:37:00,75.9,54.2,29.80,NW,318,0.0,2.0,47,0.00,,,0.00,912,WeatherCatV1.20B785,2013-08-11 15:37:00,
2013-08-11 11:42:00,76.5,54.2,29.80,North,355,3.0,3.0,46,0.00,,,0.00,109,WeatherCatV1.20B785,2013-08-11 15:42:00,
2013-08-11 11:47:00,76.3,55.2,29.80,NW,316,3.0,3.0,48,0.00,,,0.00,202,WeatherCatV1.20B785,2013-08-11 15:47:00,
2013-08-11 11:52:00,76.4,55.8,29.79,South,173,1.0,3.0,49,0.00,,,0.00,919,WeatherCatV1.20B785,2013-08-11 15:52:00,
2013-08-11 11:57:00,77.4,55.6,29.80,WSW,243,1.0,3.0,47,0.00,,,0.00,925,WeatherCatV1.20B785,2013-08-11 15:57:00,
2013-08-11 12:02:00,76.9,55.1,29.80,NW,322,1.0,5.0,47,0.00,,,0.00,932,WeatherCatV1.20B785,2013-08-11 16:02:00,
2013-08-11 12:07:00,77.4,56.7,29.79,West,260,0.0,7.0,49,0.00,,,0.00,930,WeatherCatV1.20B785,2013-08-11 16:07:00,
2013-08-11 12:12:00,76.7,54.3,29.79,NW,321,0.0,4.0,46,0.00,,,0.00,930,WeatherCatV1.20B785,2013-08-11 16:12:00,
2013-08-11 12:17:00,76.1,55.5,29.79,SSE,163,2.0,6.0,49,0.00,,,0.00,937,WeatherCatV1.20B785,2013-08-11 16:17:00,
2013-08-11 12:22:00,77.3,54.9,29.79,NW,323,2.0,7.0,46,0.00,,,0.00,933,WeatherCatV1.20B785,2013-08-11 16:22:00,
2013-08-11 12:27:00,77.0,54.6,29.79,NNW,327,2.0,5.0,46,0.00,,,0.00,933,WeatherCatV1.20B785,2013-08-11 16:27:00,
2013-08-11 12:32:00,76.0,54.9,29.79,NNW,339,4.0,4.0,48,0.00,,,0.00,932,WeatherCatV1.20B785,2013-08-11 16:32:00,
2013-08-11 12:37:00,75.8,54.7,29.79,NW,325,1.0,3.0,48,0.00,,,0.00,976,WeatherCatV1.20B785,2013-08-11 16:37:00,
2013-08-11 12:42:00,75.8,55.3,29.79,NW,325,3.0,7.0,49,0.00,,,0.00,932,WeatherCatV1.20B785,2013-08-11 16:42:00,
2013-08-11 12:47:00,75.7,55.2,29.78,NW,314,2.0,4.0,49,0.00,,,0.00,930,WeatherCatV1.20B785,2013-08-11 16:47:00,
2013-08-11 12:52:00,75.9,56.5,29.78,North,5,2.0,4.0,51,0.00,,,0.00,951,WeatherCatV1.20B785,2013-08-11 16:52:00,
2013-08-11 12:57:00,76.7,56.1,29.78,NW,321,1.0,5.0,49,0.00,,,0.00,932,WeatherCatV1.20B785,2013-08-11 16:57:00,
2013-08-11 13:02:00,76.6,54.8,29.78,NNW,336,3.0,7.0,47,0.00,,,0.00,925,WeatherCatV1.20B785,2013-08-11 17:02:00,
2013-08-11 13:07:00,76.4,56.4,29.78,NW,326,3.0,7.0,50,0.00,,,0.00,921,WeatherCatV1.20B785,2013-08-11 17:07:00,
2013-08-11 13:12:00,76.8,55.6,29.78,NNW,327,3.0,4.0,48,0.00,,,0.00,919,WeatherCatV1.20B785,2013-08-11 17:12:00,
2013-08-11 13:17:00,77.0,55.2,29.77,NW,319,2.0,7.0,47,0.00,,,0.00,916,WeatherCatV1.20B785,2013-08-11 17:17:00,
2013-08-11 13:22:00,76.8,56.2,29.77,NW,326,0.0,6.0,49,0.00,,,0.00,912,WeatherCatV1.20B785,2013-08-11 17:22:00,
2013-08-11 13:27:00,77.3,57.7,29.77,South,185,0.0,2.0,51,0.00,,,0.00,914,WeatherCatV1.20B785,2013-08-11 17:27:00,
2013-08-11 13:32:00,77.6,55.8,29.77,South,190,1.0,5.0,47,0.00,,,0.00,904,WeatherCatV1.20B785,2013-08-11 17:32:00,
2013-08-11 13:37:00,78.0,57.3,29.77,NW,319,3.0,3.0,49,0.00,,,0.00,900,WeatherCatV1.20B785,2013-08-11 17:37:00,
2013-08-11 13:42:00,77.8,56.5,29.77,South,176,1.0,3.0,48,0.00,,,0.00,893,WeatherCatV1.20B785,2013-08-11 17:42:00,
2013-08-11 13:47:00,79.1,57.7,29.77,SE,140,2.0,3.0,48,0.00,,,0.00,888,WeatherCatV1.20B785,2013-08-11 17:47:00,
2013-08-11 13:52:00,79.7,56.5,29.77,NW,322,0.0,4.0,45,0.00,,,0.00,882,WeatherCatV1.20B785,2013-08-11 17:52:00,
2013-08-11 13:57:00,78.2,55.7,29.77,NW,318,0.0,1.0,46,0.00,,,0.00,875,WeatherCatV1.20B785,2013-08-11 17:57:00,
2013-08-11 14:02:00,77.4,56.2,29.77,NNW,346,3.0,3.0,48,0.00,,,0.00,874,WeatherCatV1.20B785,2013-08-11 18:02:00,
2013-08-11 14:07:00,77.6,57.5,29.77,NNW,336,4.0,4.0,50,0.00,,,0.00,861,WeatherCatV1.20B785,2013-08-11 18:07:00,
2013-08-11 14:12:00,78.0,57.8,29.77,NE,40,2.0,2.0,50,0.00,,,0.00,856,WeatherCatV1.20B785,2013-08-11 18:12:00,
2013-08-11 14:17:00,77.6,56.3,29.76,NW,318,2.0,4.0,48,0.00,,,0.00,847,WeatherCatV1.20B785,2013-08-11 18:17:00,
2013-08-11 14:22:00,77.4,55.6,29.76,NW,319,4.0,6.0,47,0.00,,,0.00,840,WeatherCatV1.20B785,2013-08-11 18:22:00,
2013-08-11 14:27:00,77.2,56.0,29.77,NNW,331,1.0,6.0,48,0.00,,,0.00,831,WeatherCatV1.20B785,2013-08-11 18:27:00,
2013-08-11 14:32:00,76.9,56.3,29.76,NW,322,6.0,7.0,49,0.00,,,0.00,821,WeatherCatV1.20B785,2013-08-11 18:32:00,
2013-08-11 14:37:00,77.4,57.3,29.76,NW,304,3.0,3.0,50,0.00,,,0.00,406,WeatherCatV1.20B785,2013-08-11 18:37:00,
2013-08-11 14:42:00,77.6,56.9,29.76,NW,321,2.0,5.0,49,0.00,,,0.00,824,WeatherCatV1.20B785,2013-08-11 18:42:00,
2013-08-11 14:47:00,77.7,55.8,29.76,NW,320,1.0,3.0,47,0.00,,,0.00,81,WeatherCatV1.20B785,2013-08-11 18:47:00,
2013-08-11 14:52:00,77.8,56.5,29.76,NNW,334,1.0,5.0,48,0.00,,,0.00,79,WeatherCatV1.20B785,2013-08-11 18:52:00,
2013-08-11 14:57:00,77.9,57.2,29.76,NNW,332,0.0,3.0,49,0.00,,,0.00,79,WeatherCatV1.20B785,2013-08-11 18:57:00,
2013-08-11 15:02:00,77.9,57.2,29.76,NNW,330,0.0,2.0,49,0.00,,,0.00,77,WeatherCatV1.20B785,2013-08-11 19:02:00,
2013-08-11 15:07:00,78.1,57.4,29.76,NW,323,0.0,2.0,49,0.00,,,0.00,90,WeatherCatV1.20B785,2013-08-11 19:07:00,
2013-08-11 15:12:00,78.3,57.5,29.76,WNW,297,0.0,1.0,49,0.00,,,0.00,76,WeatherCatV1.20B785,2013-08-11 19:12:00,
2013-08-11 15:17:00,78.7,57.3,29.76,West,275,0.0,2.0,48,0.00,,,0.00,72,WeatherCatV1.20B785,2013-08-11 19:17:00,
2013-08-11 15:22:00,78.7,56.2,29.76,SSE,165,0.0,4.0,46,0.00,,,0.00,76,WeatherCatV1.20B785,2013-08-11 19:22:00,
2013-08-11 15:27:00,78.7,56.2,29.76,West,265,1.0,3.0,46,0.00,,,0.00,74,WeatherCatV1.20B785,2013-08-11 19:27:00,
2013-08-11 15:32:00,78.7,57.3,29.76,NW,317,2.0,4.0,48,0.00,,,0.00,72,WeatherCatV1.20B785,2013-08-11 19:32:00,
2013-08-11 15:37:00,78.7,56.2,29.75,NW,325,1.0,1.0,46,0.00,,,0.00,76,WeatherCatV1.20B785,2013-08-11 19:37:00,
2013-08-11 15:42:00,78.7,56.8,29.75,NNW,343,1.0,1.0,47,0.00,,,0.00,76,WeatherCatV1.20B785,2013-08-11 19:42:00,
2013-08-11 15:47:00,78.7,56.8,29.75,NW,323,2.0,5.0,47,0.00,,,0.00,74,WeatherCatV1.20B785,2013-08-11 19:47:00,
2013-08-11 15:52:00,78.5,56.6,29.75,South,179,1.0,3.0,47,0.00,,,0.00,72,WeatherCatV1.20B785,2013-08-11 19:52:00,
2013-08-11 15:57:00,78.5,56.6,29.75,SSE,159,0.0,2.0,47,0.00,,,0.00,65,WeatherCatV1.20B785,2013-08-11 19:57:00,
2013-08-11 16:02:00,78.5,57.2,29.75,NNW,332,0.0,1.0,48,0.00,,,0.00,39,WeatherCatV1.20B785,2013-08-11 20:02:00,
2013-08-11 16:07:00,78.5,57.2,29.75,South,185,1.0,3.0,48,0.00,,,0.00,109,WeatherCatV1.20B785,2013-08-11 20:07:00,
2013-08-11 16:12:00,78.4,57.1,29.75,NW,322,1.0,5.0,48,0.00,,,0.00,88,WeatherCatV1.20B785,2013-08-11 20:12:00,
2013-08-11 16:17:00,78.4,57.1,29.75,NW,322,2.0,3.0,48,0.00,,,0.00,105,WeatherCatV1.20B785,2013-08-11 20:17:00,
2013-08-11 16:22:00,78.3,57.0,29.75,South,180,1.0,2.0,48,0.00,,,0.00,102,WeatherCatV1.20B785,2013-08-11 20:22:00,
2013-08-11 16:27:00,78.3,57.0,29.75,SE,128,1.0,5.0,48,0.00,,,0.00,58,WeatherCatV1.20B785,2013-08-11 20:27:00,
2013-08-11 16:32:00,78.3,57.5,29.74,NW,318,0.0,3.0,49,0.00,,,0.00,77,WeatherCatV1.20B785,2013-08-11 20:32:00,
2013-08-11 16:37:00,78.3,57.0,29.74,NNW,329,0.0,3.0,48,0.00,,,0.00,84,WeatherCatV1.20B785,2013-08-11 20:37:00,
2013-08-11 16:42:00,78.2,56.9,29.74,North,349,1.0,2.0,48,0.00,,,0.00,74,WeatherCatV1.20B785,2013-08-11 20:42:00,
2013-08-11 16:47:00,78.1,56.8,29.74,NNW,342,1.0,2.0,48,0.00,,,0.00,69,WeatherCatV1.20B785,2013-08-11 20:47:00,
2013-08-11 16:52:00,78.1,57.4,29.74,NNW,334,0.0,1.0,49,0.00,,,0.00,63,WeatherCatV1.20B785,2013-08-11 20:52:00,
2013-08-11 16:57:00,78.1,56.8,29.74,NNW,333,3.0,3.0,48,0.00,,,0.00,39,WeatherCatV1.20B785,2013-08-11 20:57:00,
2013-08-11 17:02:00,78.0,56.7,29.74,NNW,332,0.0,2.0,48,0.00,,,0.00,32,WeatherCatV1.20B785,2013-08-11 21:02:00,
2013-08-11 17:07:00,78.0,57.3,29.74,NNW,332,2.0,2.0,49,0.00,,,0.00,72,WeatherCatV1.20B785,2013-08-11 21:07:00,
2013-08-11 17:12:00,77.9,57.7,29.74,NNW,327,0.0,1.0,50,0.00,,,0.00,74,WeatherCatV1.20B785,2013-08-11 21:12:00,
2013-08-11 17:17:00,77.9,57.2,29.74,NNW,327,0.0,1.0,49,0.00,,,0.00,56,WeatherCatV1.20B785,2013-08-11 21:17:00,
2013-08-11 17:22:00,77.8,57.7,29.74,NNW,327,0.0,2.0,50,0.00,,,0.00,62,WeatherCatV1.20B785,2013-08-11 21:22:00,
2013-08-11 17:27:00,77.8,57.7,29.74,WNW,293,1.0,2.0,50,0.00,,,0.00,33,WeatherCatV1.20B785,2013-08-11 21:27:00,
2013-08-11 17:32:00,77.7,57.6,29.74,WNW,299,1.0,1.0,50,0.00,,,0.00,69,WeatherCatV1.20B785,2013-08-11 21:32:00,
2013-08-11 17:37:00,77.6,56.9,29.74,WNW,300,0.0,2.0,49,0.00,,,0.00,67,WeatherCatV1.20B785,2013-08-11 21:37:00,
2013-08-11 17:42:00,77.6,56.9,29.74,SE,145,0.0,3.0,49,0.00,,,0.00,62,WeatherCatV1.20B785,2013-08-11 21:42:00,
2013-08-11 17:47:00,77.5,57.4,29.74,South,173,2.0,4.0,50,0.00,,,0.00,49,WeatherCatV1.20B785,2013-08-11 21:47:00,
2013-08-11 17:52:00,77.5,57.9,29.73,South,187,0.0,0.0,51,0.00,,,0.00,60,WeatherCatV1.20B785,2013-08-11 21:52:00,
2013-08-11 17:57:00,77.5,57.9,29.74,South,190,0.0,0.0,51,0.00,,,0.00,74,WeatherCatV1.20B785,2013-08-11 21:57:00,
2013-08-11 18:02:00,77.5,58.5,29.74,South,190,0.0,1.0,52,0.00,,,0.00,72,WeatherCatV1.20B785,2013-08-11 22:02:00,
2013-08-11 18:07:00,77.6,59.1,29.74,South,190,0.0,0.0,53,0.00,,,0.00,70,WeatherCatV1.20B785,2013-08-11 22:07:00,
2013-08-11 18:12:00,77.6,58.6,29.74,NW,323,0.0,0.0,52,0.00,,,0.00,74,WeatherCatV1.20B785,2013-08-11 22:12:00,
2013-08-11 18:17:00,77.7,59.2,29.74,NW,323,1.0,2.0,53,0.00,,,0.00,51,WeatherCatV1.20B785,2013-08-11 22:17:00,
2013-08-11 18:22:00,77.6,58.0,29.74,SSE,163,0.0,1.0,51,0.00,,,0.00,23,WeatherCatV1.20B785,2013-08-11 22:22:00,
2013-08-11 18:27:00,77.6,58.6,29.74,South,176,0.0,0.0,52,0.00,,,0.00,23,WeatherCatV1.20B785,2013-08-11 22:27:00,
2013-08-11 18:32:00,77.5,59.0,29.74,South,176,0.0,0.0,53,0.00,,,0.00,26,WeatherCatV1.20B785,2013-08-11 22:32:00,
2013-08-11 18:37:00,77.4,59.4,29.74,South,176,0.0,0.0,54,0.00,,,0.00,26,WeatherCatV1.20B785,2013-08-11 22:37:00,
2013-08-11 18:42:00,77.3,59.3,29.74,South,176,0.0,1.0,54,0.00,,,0.00,40,WeatherCatV1.20B785,2013-08-11 22:42:00,
2013-08-11 18:47:00,77.1,59.2,29.74,South,176,0.0,0.0,54,0.00,,,0.00,28,WeatherCatV1.20B785,2013-08-11 22:47:00,
2013-08-11 18:52:00,77.0,59.6,29.74,South,176,0.0,0.0,55,0.00,,,0.00,16,WeatherCatV1.20B785,2013-08-11 22:52:00,
2013-08-11 18:57:00,77.0,60.1,29.74,South,176,0.0,0.0,56,0.00,,,0.00,30,WeatherCatV1.20B785,2013-08-11 22:57:00,
2013-08-11 19:02:00,76.8,59.9,29.74,South,176,0.0,0.0,56,0.00,,,0.00,25,WeatherCatV1.20B785,2013-08-11 23:02:00,
2013-08-11 19:07:00,76.6,59.7,29.74,South,176,0.0,0.0,56,0.00,,,0.00,11,WeatherCatV1.20B785,2013-08-11 23:07:00,
2013-08-11 19:12:00,76.5,60.1,29.74,South,176,0.0,0.0,57,0.00,,,0.00,12,WeatherCatV1.20B785,2013-08-11 23:12:00,
2013-08-11 19:17:00,76.3,60.4,29.74,South,176,0.0,0.0,58,0.00,,,0.00,9,WeatherCatV1.20B785,2013-08-11 23:17:00,
2013-08-11 19:22:00,76.1,60.2,29.74,South,176,0.0,0.0,58,0.00,,,0.00,14,WeatherCatV1.20B785,2013-08-11 23:22:00,
2013-08-11 19:27:00,75.9,60.0,29.74,South,176,0.0,0.0,58,0.00,,,0.00,14,WeatherCatV1.20B785,2013-08-11 23:27:00,
2013-08-11 19:32:00,75.6,60.7,29.74,South,176,0.0,0.0,60,0.00,,,0.00,12,WeatherCatV1.20B785,2013-08-11 23:32:00,
2013-08-11 19:37:00,75.4,60.1,29.74,South,176,0.0,0.0,59,0.00,,,0.00,7,WeatherCatV1.20B785,2013-08-11 23:37:00,
2013-08-11 19:42:00,75.1,60.2,29.74,South,176,0.0,0.0,60,0.00,,,0.00,0,WeatherCatV1.20B785,2013-08-11 23:42:00,
2013-08-11 19:47:00,74.9,60.5,29.74,South,176,0.0,0.0,61,0.00,,,0.00,0,WeatherCatV1.20B785,2013-08-11 23:47:00,
2013-08-11 19:52:00,74.6,59.8,29.74,South,176,0.0,0.0,60,0.00,,,0.00,0,WeatherCatV1.20B785,2013-08-11 23:52:00,
2013-08-11 19:57:00,74.3,60.0,29.74,South,176,0.0,0.0,61,0.00,,,0.00,0,WeatherCatV1.20B785,2013-08-11 23:57:00,
2013-08-11 20:02:00,74.0,60.1,29.74,South,176,0.0,0.0,62,0.00,,,0.00,0,WeatherCatV1.20B785,2013-08-12 00:02:00,
2013-08-11 20:07:00,73.6,60.2,29.74,South,176,0.0,0.0,63,0.00,,,0.00,0,WeatherCatV1.20B785,2013-08-12 00:07:00,
2013-08-11 20:12:00,73.3,59.9,29.74,South,176,0.0,0.0,63,0.00,,,0.00,0,WeatherCatV1.20B785,2013-08-12 00:12:00,
2013-08-11 20:17:00,72.9,60.0,29.74,South,176,0.0,0.0,64,0.00,,,0.00,0,WeatherCatV1.20B785,2013-08-12 00:17:00,
2013-08-11 20:22:00,72.6,60.1,29.74,South,176,0.0,0.0,65,0.00,,,0.00,0,WeatherCatV1.20B785,2013-08-12 00:22:00,
2013-08-11 20:27:00,72.2,60.2,29.74,South,176,0.0,0.0,66,0.00,,,0.00,0,WeatherCatV1.20B785,2013-08-12 00:27:00,
2013-08-11 20:32:00,71.8,59.8,29.74,South,176,0.0,0.0,66,0.00,,,0.00,0,WeatherCatV1.20B785,2013-08-12 00:32:00,
2013-08-11 20:37:00,71.3,59.8,29.74,South,176,0.0,0.0,67,0.00,,,0.00,0,WeatherCatV1.20B785,2013-08-12 00:37:00,
2013-08-11 20:42:00,71.1,60.0,29.74,South,176,0.0,0.0,68,0.00,,,0.00,0,WeatherCatV1.20B785,2013-08-12 00:42:00,
2013-08-11 20:47:00,70.7,59.6,29.74,South,176,0.0,0.0,68,0.00,,,0.00,0,WeatherCatV1.20B785,2013-08-12 00:47:00,
2013-08-11 20:52:00,70.4,59.7,29.74,South,177,0.0,0.0,69,0.00,,,0.00,0,WeatherCatV1.20B785,2013-08-12 00:52:00,
2013-08-11 20:57:00,70.1,59.8,29.75,South,176,0.0,0.0,70,0.00,,,0.00,0,WeatherCatV1.20B785,2013-08-12 00:57:00,
2013-08-11 21:02:00,69.8,60.0,29.75,South,177,0.0,0.0,71,0.00,,,0.00,0,WeatherCatV1.20B785,2013-08-12 01:02:00,
2013-08-11 21:07:00,69.4,60.0,29.75,South,176,0.0,0.0,72,0.00,,,0.00,0,WeatherCatV1.20B785,2013-08-12 01:07:00,
2013-08-11 21:12:00,69.1,59.7,29.75,South,177,0.0,0.0,72,0.00,,,0.00,0,WeatherCatV1.20B785,2013-08-12 01:12:00,
2013-08-11 21:17:00,68.8,59.8,29.76,South,177,0.0,0.0,73,0.00,,,0.00,0,WeatherCatV1.20B785,2013-08-12 01:17:00,
2013-08-11 21:22:00,68.6,59.6,29.76,South,176,0.0,0.0,73,0.00,,,0.00,0,WeatherCatV1.20B785,2013-08-12 01:22:00,
2013-08-11 21:27:00,68.3,59.3,29.76,South,177,0.0,0.0,73,0.00,,,0.00,0,WeatherCatV1.20B785,2013-08-12 01:27:00,
2013-08-11 21:32:00,68.1,58.7,29.76,South,177,0.0,0.0,72,0.00,,,0.00,0,WeatherCatV1.20B785,2013-08-12 01:32:00,
2013-08-11 21:37:00,67.9,58.9,29.76,South,177,0.0,0.0,73,0.00,,,0.00,0,WeatherCatV1.20B785,2013-08-12 01:37:00,
2013-08-11 21:42:00,67.8,58.8,29.76,South,176,0.0,0.0,73,0.00,,,0.00,0,WeatherCatV1.20B785,2013-08-12 01:42:00,
2013-08-11 21:47:00,67.6,58.6,29.76,South,176,0.0,0.0,73,0.00,,,0.00,0,WeatherCatV1.20B785,2013-08-12 01:47:00,
2013-08-11 21:52:00,67.5,58.9,29.76,South,177,0.0,0.0,74,0.00,,,0.00,0,WeatherCatV1.20B785,2013-08-12 01:52:00,
2013-08-11 21:57:00,67.4,58.8,29.76,South,177,0.0,0.0,74,0.00,,,0.00,0,WeatherCatV1.20B785,2013-08-12 01:57:00,
2013-08-11 22:02:00,67.2,58.6,29.76,South,177,0.0,0.0,74,0.00,,,0.00,0,WeatherCatV1.20B785,2013-08-12 02:02:00,
2013-08-11 22:07:00,67.0,58.8,29.76,South,177,0.0,0.0,75,0.00,,,0.00,0,WeatherCatV1.20B785,2013-08-12 02:07:00,
2013-08-11 22:12:00,66.8,58.6,29.76,South,177,0.0,0.0,75,0.00,,,0.00,0,WeatherCatV1.20B785,2013-08-12 02:12:00,
2013-08-11 22:17:00,66.5,58.3,29.76,South,176,0.0,0.0,75,0.00,,,0.00,0,WeatherCatV1.20B785,2013-08-12 02:17:00,
2013-08-11 22:22:00,66.3,58.1,29.76,South,177,0.0,0.0,75,0.00,,,0.00,0,WeatherCatV1.20B785,2013-08-12 02:22:00,
2013-08-11 22:27:00,66.2,58.4,29.76,South,177,0.0,0.0,76,0.00,,,0.00,0,WeatherCatV1.20B785,2013-08-12 02:27:00,
2013-08-11 22:32:00,66.0,58.2,29.76,South,176,0.0,0.0,76,0.00,,,0.00,0,WeatherCatV1.20B785,2013-08-12 02:32:00,
2013-08-11 22:37:00,65.9,58.5,29.76,South,176,0.0,0.0,77,0.00,,,0.00,0,WeatherCatV1.20B785,2013-08-12 02:37:00,
2013-08-11 22:42:00,65.8,58.4,29.76,South,177,0.0,0.0,77,0.00,,,0.00,0,WeatherCatV1.20B785,2013-08-12 02:42:00,
2013-08-11 22:47:00,65.6,58.2,29.76,South,177,0.0,0.0,77,0.00,,,0.00,0,WeatherCatV1.20B785,2013-08-12 02:47:00,
2013-08-11 22:52:00,65.5,58.1,29.76,South,177,0.0,0.0,77,0.00,,,0.00,0,WeatherCatV1.20B785,2013-08-12 02:52:00,
2013-08-11 22:57:00,65.4,58.0,29.77,South,177,0.0,0.0,77,0.00,,,0.00,0,WeatherCatV1.20B785,2013-08-12 02:57:00,
2013-08-11 23:02:00,65.3,57.9,29.76,SSW,198,0.0,1.0,77,0.00,,,0.00,0,WeatherCatV1.20B785,2013-08-12 03:02:00,
2013-08-11 23:07:00,65.2,57.8,29.76,SSW,199,0.0,0.0,77,0.00,,,0.00,0,WeatherCatV1.20B785,2013-08-12 03:07:00,
2013-08-11 23:12:00,65.2,57.8,29.77,SSW,199,0.0,0.0,77,0.00,,,0.00,0,WeatherCatV1.20B785,2013-08-12 03:12:00,
2013-08-11 23:17:00,65.2,57.8,29.76,SSW,199,0.0,0.0,77,0.00,,,0.00,0,WeatherCatV1.20B785,2013-08-12 03:17:00,
2013-08-11 23:22:00,65.2,57.8,29.76,SSW,199,0.0,0.0,77,0.00,,,0.00,0,WeatherCatV1.20B785,2013-08-12 03:22:00,
2013-08-11 23:27:00,65.3,57.9,29.76,SSW,199,0.0,0.0,77,0.00,,,0.00,0,WeatherCatV1.20B785,2013-08-12 03:27:00,
2013-08-11 23:32:00,65.3,57.9,29.76,SSW,199,0.0,1.0,77,0.00,,,0.00,0,WeatherCatV1.20B785,2013-08-12 03:32:00,
2013-08-11 23:37:00,65.3,57.9,29.76,SSW,199,0.0,0.0,77,0.00,,,0.00,0,WeatherCatV1.20B785,2013-08-12 03:37:00,
2013-08-11 23:42:00,65.3,57.9,29.76,SSW,199,0.0,0.0,77,0.00,,,0.00,0,WeatherCatV1.20B785,2013-08-12 03:42:00,
2013-08-11 23:47:00,65.4,58.3,29.76,SSW,199,0.0,0.0,78,0.00,,,0.00,0,WeatherCatV1.20B785,2013-08-12 03:47:00,
2013-08-11 23:52:00,65.3,58.3,29.76,SSW,199,0.0,1.0,78,0.00,,,0.00,0,WeatherCatV1.20B785,2013-08-12 03:52:00,
2013-08-11 23:57:00,65.3,58.3,29.76,SSW,199,0.0,0.0,78,0.00,,,0.00,0,WeatherCatV1.20B785,2013-08-12 03:57:00,